Flag for China Weather past 2 weeks in Langfang, Hebei, China

Now
90 °F

Sunny.


Feels Like: 88 °F
Forecast: 68 / 96 °F
Wind: 10 mph from South

Location: Beijing Airport

Current Time: Jul 25, 2014 at 6:05:05 PM

Latest Report: Jul 25, 2014 at 5:30 PM


Visibility: 10 mi

Pressure: 29.65 "Hg

Humidity: 33%

Dew point: 57 °F

Location of LangfangLocation

Historic Weather in Langfang — Graph

°F

Langfang temperature yesterday

Maximum temperature yesterday: 86 °F (at 5:30 PM)
Minimum temperature yesterday: 72 °F (at 11:00 PM)
Average temperature yesterday: 79 °F

Past Weeks' High & Low Weather Summary

 TemperatureHumidityPressure
High99 °F (Jul 10, 4:00 PM)94% (Jul 25, 1:30 AM)29.83 "Hg (Jul 25, 1:30 AM)
Low68 °F (Jul 14, 5:00 AM)22% (Jul 10, 4:00 PM)29.45 "Hg (Jul 10, 5:00 PM)
Average84 °F57%29.65 "Hg
* Reported Jul 10 4:00 PM — Jul 25 4:30 PM, Langfang, Weather by CustomWeather, © 2014

Note: Actual official high and low records may vary slightly from our data, if they occured in-between our weather recording intervals... More about our weather records

Advertising

Langfang weather history for previous 24 hours

 ConditionsComfort  
Time TempWeatherWind HumidityBarometerVisibility
4:30 PM
Jul 25
91 °FPassing clouds.6 mph38%29.65 "HgN/A
4:00 PM91 °FPassing clouds.6 mph38%29.65 "HgN/A
3:30 PM91 °FSunny.10 mph41%29.65 "Hg10 mi
3:00 PM93 °FPassing clouds.6 mph36%29.65 "HgN/A
2:30 PM93 °FPassing clouds.8 mph36%29.65 "HgN/A
2:00 PM91 °FPassing clouds.8 mph36%29.68 "HgN/A
1:30 PM91 °FPassing clouds.8 mph36%29.68 "HgN/A
1:00 PM91 °FPassing clouds.6 mph38%29.68 "HgN/A
12:30 PM91 °FSunny.3 mph38%29.68 "Hg10 mi
12:00 PM90 °FSunny.3 mph41%29.68 "Hg10 mi
11:30 AM90 °FPassing clouds.6 mph43%29.68 "HgN/A
10:30 AM88 °FPassing clouds.8 mph43%29.71 "HgN/A
10:00 AM88 °FPassing clouds.6 mph46%29.71 "HgN/A
9:30 AM84 °FPassing clouds.6 mph51%29.71 "HgN/A
9:00 AM84 °FPassing clouds.8 mph51%29.71 "HgN/A
8:30 AM82 °FClear.8 mph58%29.71 "Hg5 mi
8:00 AM79 °FClear.8 mph70%29.71 "Hg5 mi
7:30 AM77 °FClear.8 mph74%29.71 "Hg5 mi
7:00 AM73 °FClear.6 mph78%29.74 "Hg5 mi
6:30 AM72 °FClear.3 mph83%29.74 "Hg4 mi
6:00 AM68 °FFog.6 mph94%29.74 "Hg3 mi
5:30 AM68 °FFog.1 mph88%29.71 "Hg3 mi
5:00 AM68 °FFog.3 mph88%29.71 "Hg3 mi
4:30 AM68 °FFog.1 mph94%29.71 "Hg3 mi
4:00 AM68 °FFog.1 mph94%29.71 "Hg3 mi
3:30 AM68 °FFog.1 mph94%29.71 "Hg2 mi
3:00 AM68 °FFog.1 mph94%29.71 "Hg2 mi
2:30 AM70 °FFog.No wind88%29.74 "Hg2 mi
2:00 AM70 °FFog.1 mph88%29.74 "Hg3 mi
1:30 AM70 °FClear.1 mph94%29.74 "Hg4 mi
1:00 AM72 °FClear.1 mph88%29.74 "Hg4 mi
12:30 AM72 °FClear.3 mph88%29.74 "Hg10 mi
12:00 AM70 °FClear.3 mph88%29.74 "Hg10 mi
11:30 PM
Jul 24
72 °FClear.1 mph83%29.74 "Hg10 mi
11:00 PM72 °FClear.1 mph83%29.77 "Hg10 mi
10:30 PM73 °FClear.1 mph78%29.77 "Hg10 mi
10:00 PM75 °FClear.1 mph78%29.77 "Hg10 mi
9:30 PM77 °FPassing clouds.3 mph69%29.74 "HgN/A
9:00 PM79 °FClear.3 mph65%29.74 "Hg10 mi
8:30 PM79 °FClear.3 mph61%29.74 "Hg10 mi
8:00 PM79 °FClear.3 mph61%29.71 "Hg10 mi
7:30 PM81 °FSunny.3 mph58%29.71 "Hg10 mi
7:00 PM82 °FSunny.6 mph55%29.68 "Hg10 mi
6:30 PM84 °FSunny.6 mph51%29.68 "Hg10 mi
6:00 PM86 °FPassing clouds.6 mph52%29.68 "HgN/A
Weather by CustomWeather, © 2014

See weather overviewHow to use our weather pages